sat.trackr.live / text

‹ back to catalog

STARLINK-32503

NORAD 62157 · 2024-224U

PAYLOAD ACTIVE UNKNOWN

§ Identity

Operator
Country
US
Launch date
2024-11-30
Launch site
AFETR
Launch vehicle
Mass (kg)
RCS (m²)

Purposes: comms

External: N2YO · Heavens-Above · Gunter

§ Orbital elements

Epoch: 2026-05-25T02:57:28.079424Z

Period
94.27 min
Inclination
43.0023°
Eccentricity
0.0001531
Mean motion
15.27602350 rev/d
Perigee alt
481.9 km
Apogee alt
484.0 km
Semi-major
6,861.1 km
B*
5.8252e-4
RAAN
93.8721°
Arg perigee
265.0862°
Mean anomaly
94.9815°
Rev number
8,365

§ Raw data

STARLINK-325031 62157U 24224U   26145.12324166  .00015813  00000+0  58252-3 0  99902 62157  43.0023  93.8721 0001531 265.0862  94.9815 15.27602350 83653

JSON: /api/v1/satellites/62157 · /tle

For live sub-satellite position, see the globe view (requires WebGL).

§ Visibility from observer

Set your observer location to see the next 7 days of passes ≥ 10°. The values pass through the URL so the page stays shareable.

No JS? Fill the form by hand. The geolocation button needs JavaScript.